User: anonymous   Login
Location: Unspecified
(0.0000°N, 0.0000°E)
Time: 23:01:30
(UTC+02:00)
Language:

Centaur AC-64 - Orbit

View from above orbital plane
View from above orbital plane
View from above satellite
View from above satellite

Ground track
Ground track

The orbit data is extracted from the following two-line orbital elements,

1 15874U 85055B   17113.16007682 +.00002066 +00000-0 +66847-3 0  9999
2 15874 023.0418 123.9080 6578477 143.6477 287.6204 03.19151607328706
Epoch (UTC): 23 April 2017 03:50:30
Eccentricity: 0.6578477
inclination: 23.0418°
perigee height: 289 km
apogee height: 25927 km
right ascension of ascending node: 123.9080°
argument of perigee: 143.6477°
revolutions per day: 3.19151607
mean anomaly at epoch: 287.6204°
orbit number at epoch: 32870

The dashed part of the orbit path shows where the satellite is in the earth's shadow,  

DLR